Orbital elements of FGRST
| Launched | 10 June 2008 |
| Flight ended | – |
| Launch site | Air Force Eastern Test Range, Florida, USA |
| Owner | United States |
| NORAD ID | 33053 |
| Alternative names |
GLAST FERMI GAMMA RAY SPACE TELESCOPE GAMMA RAY LARGE AREA SPACE TELESCOPE |
| Date fetched |
Epoch osculation |
Inc. [°] |
Ecc. | RA asc node [hr] |
Arg Peri. [°] |
Mean anom [°] |
Mean motion [rev/day] |
Abs. mag |
| Date fetched |
Epoch osculation |
Inc. [°] |
Ecc. | RA asc node [hr] |
Arg Peri. [°] |
Mean anom [°] |
Mean motion [rev/day] |
Abs. mag |
| 2026 May 01 17:56 | 2026 May 01 11:21:10 | 25.5806 | 0.00086 | 11.2517 | 133.6108 | 226.5146 | 15.23694 | 5.743 |
| 2026 Apr 30 17:56 | 2026 Apr 30 11:46:37 | 25.5808 | 0.00087 | 11.7063 | 122.4283 | 226.5146 | 15.23694 | 5.743 |
| 2026 Apr 29 17:57 | 2026 Apr 29 12:12:02 | 25.5811 | 0.00087 | 12.1608 | 111.3756 | 226.5146 | 15.23694 | 5.743 |
| 2026 Apr 28 17:56 | 2026 Apr 28 12:37:28 | 25.5814 | 0.00087 | 12.6154 | 100.2606 | 226.5146 | 15.23694 | 5.743 |
| 2026 Apr 27 17:58 | 2026 Apr 27 13:02:53 | 25.5813 | 0.00087 | 13.0699 | 89.4220 | 226.5146 | 15.23694 | 5.743 |
| 2026 Apr 26 17:58 | 2026 Apr 26 11:53:59 | 25.5812 | 0.00087 | 13.5547 | 78.0576 | 226.5146 | 15.23694 | 5.743 |
| 2026 Apr 25 17:58 | 2026 Apr 25 12:19:23 | 25.5813 | 0.00087 | 14.0093 | 67.1073 | 226.5146 | 15.23694 | 5.743 |
| 2026 Apr 24 17:59 | 2026 Apr 24 12:44:47 | 25.5814 | 0.00087 | 14.4638 | 56.0760 | 226.5146 | 15.23694 | 5.743 |
| 2026 Apr 23 17:57 | 2026 Apr 22 15:09:52 | 25.5817 | 0.00085 | 15.3426 | 34.4940 | 226.5146 | 15.23694 | 5.743 |
| 2026 Apr 22 17:57 | 2026 Apr 22 01:01:05 | 25.5819 | 0.00085 | 15.6153 | 27.6453 | 226.5146 | 15.23694 | 5.743 |
| 2026 Apr 21 17:57 | 2026 Apr 21 01:26:28 | 25.5821 | 0.00084 | 16.0698 | 16.2313 | 226.5146 | 15.23694 | 5.743 |
| 2026 Apr 20 17:57 | 2026 Apr 20 01:51:50 | 25.5816 | 0.00082 | 16.5244 | 4.0911 | 226.5146 | 15.23694 | 5.743 |
| 2026 Apr 19 17:58 | 2026 Apr 19 02:17:12 | 25.5817 | 0.00082 | 16.9789 | 352.3682 | 226.5146 | 15.23694 | 5.743 |
| 2026 Apr 18 17:56 | 2026 Apr 18 02:42:34 | 25.5818 | 0.00081 | 17.4335 | 340.6032 | 226.5146 | 15.23694 | 5.743 |
| 2026 Apr 16 17:57 | 2026 Apr 16 01:58:58 | 25.5824 | 0.00079 | 18.3728 | 317.0677 | 226.5146 | 15.23694 | 5.743 |
| 2026 Apr 14 17:57 | 2026 Apr 14 04:23:58 | 25.5825 | 0.00078 | 19.2515 | 293.3826 | 226.5146 | 15.23694 | 5.743 |
| 2026 Apr 13 17:57 | 2026 Apr 13 04:49:19 | 25.5826 | 0.00078 | 19.7061 | 281.1337 | 226.5146 | 15.23694 | 5.743 |
| 2026 Apr 12 17:57 | 2026 Apr 11 22:57:25 | 25.5828 | 0.00077 | 20.2818 | 265.3614 | 226.5146 | 15.23694 | 5.743 |
| 2026 Apr 11 17:57 | 2026 Apr 11 05:40:00 | 25.5830 | 0.00077 | 20.6151 | 256.3613 | 226.5146 | 15.23694 | 5.743 |
| 2026 Apr 10 17:58 | 2026 Apr 09 00:13:26 | 25.5836 | 0.00078 | 21.6452 | 228.5263 | 226.5146 | 15.23694 | 5.743 |
| 2026 Apr 09 18:01 | 2026 Apr 09 00:13:26 | 25.5836 | 0.00078 | 21.6452 | 228.5263 | 226.5146 | 15.23694 | 5.743 |
| 2026 Apr 08 17:57 | 2026 Apr 07 23:04:27 | 25.5838 | 0.00079 | 22.1300 | 215.6099 | 226.5146 | 15.23694 | 5.743 |
| 2026 Apr 07 17:57 | 2026 Apr 06 23:29:46 | 25.5839 | 0.00079 | 22.5845 | 203.6684 | 226.5146 | 15.23694 | 5.743 |
| 2026 Apr 06 17:57 | 2026 Apr 06 01:29:24 | 25.5841 | 0.00080 | 23.0087 | 192.6698 | 226.5146 | 15.23694 | 5.743 |
| 2026 Apr 05 17:56 | 2026 Apr 05 09:46:16 | 25.5841 | 0.00081 | 23.3116 | 184.8258 | 226.5146 | 15.23694 | 5.743 |
| 2026 Apr 04 17:57 | 2026 Apr 04 02:20:01 | 25.5840 | 0.00082 | 23.9176 | 169.4642 | 226.5146 | 15.23694 | 5.743 |